Year,Month,Day,Hour,Minute,Value (Times are PST for temperature in C)
2013,09,11,00,00,15.80
2013,09,11,00,01,15.80
2013,09,11,00,02,15.80
2013,09,11,00,03,15.80
2013,09,11,00,04,15.80
2013,09,11,00,05,15.80
2013,09,11,00,06,15.80
2013,09,11,00,07,15.80
2013,09,11,00,08,15.80
2013,09,11,00,09,15.70
2013,09,11,00,10,15.70
2013,09,11,00,11,15.70
2013,09,11,00,12,15.70
2013,09,11,00,13,15.70
2013,09,11,00,14,15.70
2013,09,11,00,15,15.70
2013,09,11,00,16,15.70
2013,09,11,00,17,15.70
2013,09,11,00,18,15.70
2013,09,11,00,19,15.70
2013,09,11,00,20,15.70
2013,09,11,00,21,15.70
2013,09,11,00,22,15.70
2013,09,11,00,23,15.60
2013,09,11,00,24,15.60
2013,09,11,00,25,15.60
2013,09,11,00,26,15.60
2013,09,11,00,27,15.60
2013,09,11,00,28,15.60
2013,09,11,00,29,15.60
2013,09,11,00,30,15.60
2013,09,11,00,31,15.60
2013,09,11,00,32,15.60
2013,09,11,00,33,15.50
2013,09,11,00,34,15.50
2013,09,11,00,35,15.50
2013,09,11,00,36,15.50
2013,09,11,00,37,15.50
2013,09,11,00,38,15.50
2013,09,11,00,39,15.50
2013,09,11,00,40,15.50
2013,09,11,00,41,15.50
2013,09,11,00,42,15.50
2013,09,11,00,43,15.50
2013,09,11,00,44,15.50
2013,09,11,00,45,15.40
2013,09,11,00,46,15.40
2013,09,11,00,47,15.40
2013,09,11,00,48,15.40
2013,09,11,00,49,15.40
2013,09,11,00,50,15.40
2013,09,11,00,51,15.40
2013,09,11,00,52,15.40
2013,09,11,00,53,15.30
2013,09,11,00,54,15.30
2013,09,11,00,55,15.30
2013,09,11,00,56,15.30
2013,09,11,00,57,15.30
2013,09,11,00,58,15.30
2013,09,11,00,59,15.30
2013,09,11,01,00,15.30
2013,09,11,01,01,15.30
2013,09,11,01,02,15.30
2013,09,11,01,03,15.30
2013,09,11,01,04,15.30
2013,09,11,01,05,15.30
2013,09,11,01,06,15.30
2013,09,11,01,07,15.30
2013,09,11,01,08,15.30
2013,09,11,01,09,15.30
2013,09,11,01,10,15.20
2013,09,11,01,11,15.20
2013,09,11,01,12,15.20
2013,09,11,01,13,15.20
2013,09,11,01,14,15.20
2013,09,11,01,15,15.20
2013,09,11,01,16,15.20
2013,09,11,01,17,15.20
2013,09,11,01,18,15.20
2013,09,11,01,19,15.20
2013,09,11,01,20,15.20
2013,09,11,01,21,15.20
2013,09,11,01,22,15.20
2013,09,11,01,23,15.20
2013,09,11,01,24,15.20
2013,09,11,01,25,15.20
2013,09,11,01,26,15.20
2013,09,11,01,27,15.20
2013,09,11,01,28,15.20
2013,09,11,01,29,15.20
2013,09,11,01,30,15.20
2013,09,11,01,31,15.20
2013,09,11,01,32,15.20
2013,09,11,01,33,15.20
2013,09,11,01,34,15.20
2013,09,11,01,35,15.20
2013,09,11,01,36,15.20
2013,09,11,01,37,15.20
2013,09,11,01,38,15.20
2013,09,11,01,39,15.10
2013,09,11,01,40,15.10
2013,09,11,01,41,15.10
2013,09,11,01,42,15.20
2013,09,11,01,43,15.20
2013,09,11,01,44,15.20
2013,09,11,01,45,15.20
2013,09,11,01,46,15.20
2013,09,11,01,47,15.20
2013,09,11,01,48,15.20
2013,09,11,01,49,15.20
2013,09,11,01,50,15.20
2013,09,11,01,51,15.20
2013,09,11,01,52,15.20
2013,09,11,01,53,15.20
2013,09,11,01,54,15.20
2013,09,11,01,55,15.10
2013,09,11,01,56,15.10
2013,09,11,01,57,15.10
2013,09,11,01,58,15.10
2013,09,11,01,59,15.10
2013,09,11,02,00,15.10
2013,09,11,02,01,15.10
2013,09,11,02,02,15.10
2013,09,11,02,03,15.10
2013,09,11,02,04,15.10
2013,09,11,02,05,15.10
2013,09,11,02,06,15.10
2013,09,11,02,07,15.10
2013,09,11,02,08,15.10
2013,09,11,02,09,15.10
2013,09,11,02,10,15.20
2013,09,11,02,11,15.20
2013,09,11,02,12,15.20
2013,09,11,02,13,15.20
2013,09,11,02,14,15.20
2013,09,11,02,15,15.20
2013,09,11,02,16,15.20
2013,09,11,02,17,15.20
2013,09,11,02,18,15.20
2013,09,11,02,19,15.20
2013,09,11,02,20,15.20
2013,09,11,02,21,15.20
2013,09,11,02,22,15.30
2013,09,11,02,23,15.30
2013,09,11,02,24,15.30
2013,09,11,02,25,15.30
2013,09,11,02,26,15.30
2013,09,11,02,27,15.30
2013,09,11,02,28,15.30
2013,09,11,02,29,15.30
2013,09,11,02,30,15.30
2013,09,11,02,31,15.30
2013,09,11,02,32,15.30
2013,09,11,02,33,15.30
2013,09,11,02,34,15.30
2013,09,11,02,35,15.30
2013,09,11,02,36,15.30
2013,09,11,02,37,15.30
2013,09,11,02,38,15.30
2013,09,11,02,39,15.30
2013,09,11,02,40,15.30
2013,09,11,02,41,15.30
2013,09,11,02,42,15.20
2013,09,11,02,43,15.20
2013,09,11,02,44,15.20
2013,09,11,02,45,15.20
2013,09,11,02,46,15.20
2013,09,11,02,47,15.20
2013,09,11,02,48,15.20
2013,09,11,02,49,15.20
2013,09,11,02,50,15.20
2013,09,11,02,51,15.20
2013,09,11,02,52,15.10
2013,09,11,02,53,15.10
2013,09,11,02,54,15.10
2013,09,11,02,55,15.10
2013,09,11,02,56,15.10
2013,09,11,02,57,15.10
2013,09,11,02,58,15.00
2013,09,11,02,59,15.00
2013,09,11,03,00,15.00
2013,09,11,03,01,15.00
2013,09,11,03,02,15.00
2013,09,11,03,03,15.00
2013,09,11,03,04,15.00
2013,09,11,03,05,15.00
2013,09,11,03,06,15.00
2013,09,11,03,07,15.00
2013,09,11,03,08,15.00
2013,09,11,03,09,15.00
2013,09,11,03,10,15.00
2013,09,11,03,11,15.00
2013,09,11,03,12,15.00
2013,09,11,03,13,15.00
2013,09,11,03,14,15.00
2013,09,11,03,15,15.00
2013,09,11,03,16,15.00
2013,09,11,03,17,15.00
2013,09,11,03,18,15.00
2013,09,11,03,19,15.00
2013,09,11,03,20,15.00
2013,09,11,03,21,15.00
2013,09,11,03,22,15.00
2013,09,11,03,23,15.00
2013,09,11,03,24,15.00
2013,09,11,03,25,15.00
2013,09,11,03,26,14.90
2013,09,11,03,27,14.90
2013,09,11,03,28,14.90
2013,09,11,03,29,15.00
2013,09,11,03,30,15.00
2013,09,11,03,31,15.00
2013,09,11,03,32,15.00
2013,09,11,03,33,15.00
2013,09,11,03,34,15.00
2013,09,11,03,35,15.00
2013,09,11,03,36,15.00
2013,09,11,03,37,15.00
2013,09,11,03,38,15.00
2013,09,11,03,39,15.00
2013,09,11,03,40,15.00
2013,09,11,03,41,15.00
2013,09,11,03,42,15.00
2013,09,11,03,43,14.90
2013,09,11,03,44,14.90
2013,09,11,03,45,14.90
2013,09,11,03,46,14.90
2013,09,11,03,47,14.90
2013,09,11,03,48,14.80
2013,09,11,03,49,14.80
2013,09,11,03,50,14.80
2013,09,11,03,51,14.80
2013,09,11,03,52,14.80
2013,09,11,03,53,14.90
2013,09,11,03,54,14.90
2013,09,11,03,55,14.90
2013,09,11,03,56,14.90
2013,09,11,03,57,14.80
2013,09,11,03,58,14.80
2013,09,11,03,59,14.80
2013,09,11,04,00,14.80
2013,09,11,04,01,14.70
2013,09,11,04,02,14.70
2013,09,11,04,03,14.70
2013,09,11,04,04,14.60
2013,09,11,04,05,14.60
2013,09,11,04,06,14.50
2013,09,11,04,07,14.50
2013,09,11,04,08,14.50
2013,09,11,04,09,14.40
2013,09,11,04,10,14.40
2013,09,11,04,11,14.40
2013,09,11,04,12,14.40
2013,09,11,04,13,14.40
2013,09,11,04,14,14.40
2013,09,11,04,15,14.40
2013,09,11,04,16,14.40
2013,09,11,04,17,14.40
2013,09,11,04,18,14.40
2013,09,11,04,19,14.40
2013,09,11,04,20,14.40
2013,09,11,04,21,14.40
2013,09,11,04,22,14.40
2013,09,11,04,23,14.40
2013,09,11,04,24,14.40
2013,09,11,04,25,14.40
2013,09,11,04,26,14.40
2013,09,11,04,27,14.40
2013,09,11,04,28,14.30
2013,09,11,04,29,14.20
2013,09,11,04,30,14.20
2013,09,11,04,31,14.20
2013,09,11,04,32,14.10
2013,09,11,04,33,14.00
2013,09,11,04,34,14.00
2013,09,11,04,35,14.00
2013,09,11,04,36,14.00
2013,09,11,04,37,14.00
2013,09,11,04,38,14.00
2013,09,11,04,39,14.00
2013,09,11,04,40,14.00
2013,09,11,04,41,14.00
2013,09,11,04,42,14.00
2013,09,11,04,43,14.00
2013,09,11,04,44,14.00
2013,09,11,04,45,14.00
2013,09,11,04,46,14.00
2013,09,11,04,47,14.00
2013,09,11,04,48,14.00
2013,09,11,04,49,14.00
2013,09,11,04,50,14.00
2013,09,11,04,51,14.00
2013,09,11,04,52,14.00
2013,09,11,04,53,14.00
2013,09,11,04,54,14.00
2013,09,11,04,55,14.00
2013,09,11,04,56,14.10
2013,09,11,04,57,14.10
2013,09,11,04,58,14.20
2013,09,11,04,59,14.20
2013,09,11,05,00,14.20
2013,09,11,05,01,14.20
2013,09,11,05,02,14.20
2013,09,11,05,03,14.20
2013,09,11,05,04,14.30
2013,09,11,05,05,14.30
2013,09,11,05,06,14.40
2013,09,11,05,07,14.40
2013,09,11,05,08,14.40
2013,09,11,05,09,14.40
2013,09,11,05,10,14.30
2013,09,11,05,11,14.30
2013,09,11,05,12,14.20
2013,09,11,05,13,14.20
2013,09,11,05,14,14.10
2013,09,11,05,15,14.10
2013,09,11,05,16,14.00
2013,09,11,05,17,14.00
2013,09,11,05,18,14.00
2013,09,11,05,19,13.90
2013,09,11,05,20,13.90
2013,09,11,05,21,13.90
2013,09,11,05,22,13.90
2013,09,11,05,23,13.90
2013,09,11,05,24,13.90
2013,09,11,05,25,13.90
2013,09,11,05,26,13.90
2013,09,11,05,27,13.90
2013,09,11,05,28,13.90
2013,09,11,05,29,13.90
2013,09,11,05,30,13.90
2013,09,11,05,31,13.80
2013,09,11,05,32,13.80
2013,09,11,05,33,13.80
2013,09,11,05,34,13.80
2013,09,11,05,35,13.80
2013,09,11,05,36,13.80
2013,09,11,05,37,13.80
2013,09,11,05,38,13.80
2013,09,11,05,39,13.80
2013,09,11,05,40,13.80
2013,09,11,05,41,13.80
2013,09,11,05,42,13.80
2013,09,11,05,43,13.80
2013,09,11,05,44,13.80
2013,09,11,05,45,13.80
2013,09,11,05,46,13.80
2013,09,11,05,47,13.90
2013,09,11,05,48,13.90
2013,09,11,05,49,13.90
2013,09,11,05,50,13.90
2013,09,11,05,51,14.00
2013,09,11,05,52,14.00
2013,09,11,05,53,14.00
2013,09,11,05,54,14.00
2013,09,11,05,55,14.00
2013,09,11,05,56,14.00
2013,09,11,05,57,14.00
2013,09,11,05,58,14.00
2013,09,11,05,59,14.00
2013,09,11,06,00,14.00
2013,09,11,06,01,14.00
2013,09,11,06,02,13.90
2013,09,11,06,03,13.90
2013,09,11,06,04,13.90
2013,09,11,06,05,13.90
2013,09,11,06,06,13.90
2013,09,11,06,07,13.90
2013,09,11,06,08,13.90
2013,09,11,06,09,13.90
2013,09,11,06,10,13.90
2013,09,11,06,11,13.90
2013,09,11,06,12,13.90
2013,09,11,06,13,13.90
2013,09,11,06,14,13.90
2013,09,11,06,15,13.90
2013,09,11,06,16,14.00
2013,09,11,06,17,14.00
2013,09,11,06,18,14.00
2013,09,11,06,19,14.10
2013,09,11,06,20,14.10
2013,09,11,06,21,14.20
2013,09,11,06,22,14.20
2013,09,11,06,23,14.30
2013,09,11,06,24,14.40
2013,09,11,06,25,14.50
2013,09,11,06,26,14.50
2013,09,11,06,27,14.60
2013,09,11,06,28,14.70
2013,09,11,06,29,14.70
2013,09,11,06,30,14.80
2013,09,11,06,31,14.80
2013,09,11,06,32,14.80
2013,09,11,06,33,14.90
2013,09,11,06,34,14.90
2013,09,11,06,35,14.90
2013,09,11,06,36,14.90
2013,09,11,06,37,14.80
2013,09,11,06,38,14.80
2013,09,11,06,39,14.80
2013,09,11,06,40,14.70
2013,09,11,06,41,14.70
2013,09,11,06,42,14.70
2013,09,11,06,43,14.60
2013,09,11,06,44,14.60
2013,09,11,06,45,14.50
2013,09,11,06,46,14.30
2013,09,11,06,47,14.20
2013,09,11,06,48,14.10
2013,09,11,06,49,14.00
2013,09,11,06,50,13.90
2013,09,11,06,51,13.80
2013,09,11,06,52,13.80
2013,09,11,06,53,13.70
2013,09,11,06,54,13.70
2013,09,11,06,55,13.70
2013,09,11,06,56,13.70
2013,09,11,06,57,13.70
2013,09,11,06,58,13.80
2013,09,11,06,59,13.80
2013,09,11,07,00,13.80
2013,09,11,07,01,13.80
2013,09,11,07,02,13.80
2013,09,11,07,03,13.80
2013,09,11,07,04,13.80
2013,09,11,07,05,13.80
2013,09,11,07,06,13.80
2013,09,11,07,07,13.80
2013,09,11,07,08,13.80
2013,09,11,07,09,13.80
2013,09,11,07,10,13.80
2013,09,11,07,11,13.80
2013,09,11,07,12,13.80
2013,09,11,07,13,13.80
2013,09,11,07,14,13.80
2013,09,11,07,15,13.80
2013,09,11,07,16,13.80
2013,09,11,07,17,13.80
2013,09,11,07,18,13.90
2013,09,11,07,19,13.90
2013,09,11,07,20,13.90
2013,09,11,07,21,14.00
2013,09,11,07,22,14.00
2013,09,11,07,23,14.10
2013,09,11,07,24,14.20
2013,09,11,07,25,14.30
2013,09,11,07,26,14.40
2013,09,11,07,27,14.50
2013,09,11,07,28,14.60
2013,09,11,07,29,14.70
2013,09,11,07,30,14.80
2013,09,11,07,31,14.90
2013,09,11,07,32,15.00
2013,09,11,07,33,15.10
2013,09,11,07,34,15.30
2013,09,11,07,35,15.40
2013,09,11,07,36,15.40
2013,09,11,07,37,15.50
2013,09,11,07,38,15.50
2013,09,11,07,39,15.50
2013,09,11,07,40,15.50
2013,09,11,07,41,15.50
2013,09,11,07,42,15.50
2013,09,11,07,43,15.50
2013,09,11,07,44,15.50
2013,09,11,07,45,15.50
2013,09,11,07,46,15.60
2013,09,11,07,47,15.70
2013,09,11,07,48,15.90
2013,09,11,07,49,16.00
2013,09,11,07,50,16.10
2013,09,11,07,51,16.20
2013,09,11,07,52,16.20
2013,09,11,07,53,16.20
2013,09,11,07,54,16.10
2013,09,11,07,55,16.00
2013,09,11,07,56,15.90
2013,09,11,07,57,15.80
2013,09,11,07,58,15.80
2013,09,11,07,59,15.80
2013,09,11,08,00,15.80
2013,09,11,08,01,15.80
2013,09,11,08,02,15.90
2013,09,11,08,03,16.10
2013,09,11,08,04,16.30
2013,09,11,08,05,16.50
2013,09,11,08,06,16.70
2013,09,11,08,07,16.80
2013,09,11,08,08,17.00
2013,09,11,08,09,17.20
2013,09,11,08,10,17.40
2013,09,11,08,11,17.50
2013,09,11,08,12,17.70
2013,09,11,08,13,17.80
2013,09,11,08,14,18.00
2013,09,11,08,15,18.10
2013,09,11,08,16,18.20
2013,09,11,08,17,18.30
2013,09,11,08,18,18.40
2013,09,11,08,19,18.50
2013,09,11,08,20,18.60
2013,09,11,08,21,18.60
2013,09,11,08,22,18.70
2013,09,11,08,23,18.80
2013,09,11,08,24,18.90
2013,09,11,08,25,19.00
2013,09,11,08,26,19.10
2013,09,11,08,27,19.20
2013,09,11,08,28,19.30
2013,09,11,08,29,19.40
2013,09,11,08,30,19.50
2013,09,11,08,31,19.60
2013,09,11,08,32,19.70
2013,09,11,08,33,19.80
2013,09,11,08,34,19.90
2013,09,11,08,35,20.00
2013,09,11,08,36,20.10
2013,09,11,08,37,20.20
2013,09,11,08,38,20.30
2013,09,11,08,39,20.40
2013,09,11,08,40,20.40
2013,09,11,08,41,20.50
2013,09,11,08,42,20.50
2013,09,11,08,43,20.60
2013,09,11,08,44,20.60
2013,09,11,08,45,20.70
2013,09,11,08,46,20.70
2013,09,11,08,47,20.80
2013,09,11,08,48,20.80
2013,09,11,08,49,20.90
2013,09,11,08,50,21.00
2013,09,11,08,51,21.00
2013,09,11,08,52,21.00
2013,09,11,08,53,21.00
2013,09,11,08,54,21.10
2013,09,11,08,55,21.10
2013,09,11,08,56,21.20
2013,09,11,08,57,21.20
2013,09,11,08,58,21.20
2013,09,11,08,59,21.30
2013,09,11,09,00,21.30
2013,09,11,09,01,21.30
2013,09,11,09,02,21.30
2013,09,11,09,03,21.40
2013,09,11,09,04,21.50
2013,09,11,09,05,21.60
2013,09,11,09,06,21.60
2013,09,11,09,07,21.60
2013,09,11,09,08,21.60
2013,09,11,09,09,21.70
2013,09,11,09,10,21.70
2013,09,11,09,11,21.70
2013,09,11,09,12,21.80
2013,09,11,09,13,21.80
2013,09,11,09,14,21.80
2013,09,11,09,15,21.90
2013,09,11,09,16,22.00
2013,09,11,09,17,22.00
2013,09,11,09,18,22.10
2013,09,11,09,19,22.10
2013,09,11,09,20,22.20
2013,09,11,09,21,22.20
2013,09,11,09,22,22.30
2013,09,11,09,23,22.40
2013,09,11,09,24,22.50
2013,09,11,09,25,22.60
2013,09,11,09,26,22.60
2013,09,11,09,27,22.70
2013,09,11,09,28,22.70
2013,09,11,09,29,22.80
2013,09,11,09,30,22.90
2013,09,11,09,31,23.00
2013,09,11,09,32,23.10
2013,09,11,09,33,23.20
2013,09,11,09,34,23.30
2013,09,11,09,35,23.30
2013,09,11,09,36,23.30
2013,09,11,09,37,23.30
2013,09,11,09,38,23.30
2013,09,11,09,39,23.30
2013,09,11,09,40,23.30
2013,09,11,09,41,23.40
2013,09,11,09,42,23.40
2013,09,11,09,43,23.60
2013,09,11,09,44,23.60
2013,09,11,09,45,23.40
2013,09,11,09,46,23.00
2013,09,11,09,47,22.70
2013,09,11,09,48,22.30
2013,09,11,09,49,22.10
2013,09,11,09,50,21.90
2013,09,11,09,51,21.70
2013,09,11,09,52,21.60
2013,09,11,09,53,21.60
2013,09,11,09,54,21.60
2013,09,11,09,55,21.80
2013,09,11,09,56,22.10
2013,09,11,09,57,22.30
2013,09,11,09,58,22.50
2013,09,11,09,59,22.70
2013,09,11,10,00,22.90
2013,09,11,10,01,23.20
2013,09,11,10,02,23.40
2013,09,11,10,03,23.50
2013,09,11,10,04,23.70
2013,09,11,10,05,23.80
2013,09,11,10,06,24.00
2013,09,11,10,07,24.10
2013,09,11,10,08,24.10
2013,09,11,10,09,24.20
2013,09,11,10,10,24.30
2013,09,11,10,11,24.30
2013,09,11,10,12,24.40
2013,09,11,10,13,24.40
2013,09,11,10,14,24.40
2013,09,11,10,15,24.50
2013,09,11,10,16,24.50
2013,09,11,10,17,24.50
2013,09,11,10,18,24.50
2013,09,11,10,19,24.60
2013,09,11,10,20,24.60
2013,09,11,10,21,24.70
2013,09,11,10,22,24.80
2013,09,11,10,23,24.80
2013,09,11,10,24,24.80
2013,09,11,10,25,24.90
2013,09,11,10,26,24.80
2013,09,11,10,27,24.80
2013,09,11,10,28,24.80
2013,09,11,10,29,24.80
2013,09,11,10,30,24.80
2013,09,11,10,31,24.80
2013,09,11,10,32,24.80
2013,09,11,10,33,24.80
2013,09,11,10,34,24.90
2013,09,11,10,35,24.90
2013,09,11,10,36,24.90
2013,09,11,10,37,24.90
2013,09,11,10,38,24.90
2013,09,11,10,39,24.90
2013,09,11,10,40,24.90
2013,09,11,10,41,24.90
2013,09,11,10,42,24.90
2013,09,11,10,43,24.90
2013,09,11,10,44,25.00
2013,09,11,10,45,25.00
2013,09,11,10,46,25.10
2013,09,11,10,47,25.10
2013,09,11,10,48,25.20
2013,09,11,10,49,25.30
2013,09,11,10,50,25.40
2013,09,11,10,51,25.40
2013,09,11,10,52,25.40
2013,09,11,10,53,25.40
2013,09,11,10,54,25.30
2013,09,11,10,55,25.30
2013,09,11,10,56,25.30
2013,09,11,10,57,25.30
2013,09,11,10,58,25.30
2013,09,11,10,59,25.30
2013,09,11,11,00,25.30
2013,09,11,11,01,25.30
2013,09,11,11,02,25.30
2013,09,11,11,03,25.30
2013,09,11,11,04,25.40
2013,09,11,11,05,25.40
2013,09,11,11,06,25.40
2013,09,11,11,07,25.40
2013,09,11,11,08,25.50
2013,09,11,11,09,25.50
2013,09,11,11,10,25.50
2013,09,11,11,11,25.50
2013,09,11,11,12,25.50
2013,09,11,11,13,25.60
2013,09,11,11,14,25.70
2013,09,11,11,15,25.70
2013,09,11,11,16,25.80
2013,09,11,11,17,25.80
2013,09,11,11,18,25.80
2013,09,11,11,19,25.80
2013,09,11,11,20,25.70
2013,09,11,11,21,25.80
2013,09,11,11,22,25.80
2013,09,11,11,23,25.80
2013,09,11,11,24,25.80
2013,09,11,11,25,25.80
2013,09,11,11,26,25.80
2013,09,11,11,27,25.70
2013,09,11,11,28,25.70
2013,09,11,11,29,25.60
2013,09,11,11,30,25.50
2013,09,11,11,31,25.50
2013,09,11,11,32,25.40
2013,09,11,11,33,25.40
2013,09,11,11,34,25.40
2013,09,11,11,35,25.50
2013,09,11,11,36,25.50
2013,09,11,11,37,25.60
2013,09,11,11,38,25.70
2013,09,11,11,39,25.70
2013,09,11,11,40,25.80
2013,09,11,11,41,25.90
2013,09,11,11,42,25.90
2013,09,11,11,43,25.90
2013,09,11,11,44,25.90
2013,09,11,11,45,26.00
2013,09,11,11,46,26.10
2013,09,11,11,47,26.10
2013,09,11,11,48,26.20
2013,09,11,11,49,26.20
2013,09,11,11,50,26.20
2013,09,11,11,51,26.10
2013,09,11,11,52,26.00
2013,09,11,11,53,26.00
2013,09,11,11,54,25.90
2013,09,11,11,55,25.90
2013,09,11,11,56,25.90
2013,09,11,11,57,25.90
2013,09,11,11,58,25.90
2013,09,11,11,59,26.00
2013,09,11,12,00,26.00
2013,09,11,12,01,26.00
2013,09,11,12,02,26.00
2013,09,11,12,03,26.00
2013,09,11,12,04,26.10
2013,09,11,12,05,26.10
2013,09,11,12,06,26.20
2013,09,11,12,07,26.20
2013,09,11,12,08,26.40
2013,09,11,12,09,26.50
2013,09,11,12,10,26.60
2013,09,11,12,11,26.60
2013,09,11,12,12,26.60
2013,09,11,12,13,26.60
2013,09,11,12,14,26.50
2013,09,11,12,15,26.50
2013,09,11,12,16,26.60
2013,09,11,12,17,26.60
2013,09,11,12,18,26.60
2013,09,11,12,19,26.60
2013,09,11,12,20,26.70
2013,09,11,12,21,26.70
2013,09,11,12,22,26.70
2013,09,11,12,23,26.80
2013,09,11,12,24,26.70
2013,09,11,12,25,26.70
2013,09,11,12,26,26.80
2013,09,11,12,27,26.80
2013,09,11,12,28,26.80
2013,09,11,12,29,26.80
2013,09,11,12,30,26.80
2013,09,11,12,31,26.80
2013,09,11,12,32,26.90
2013,09,11,12,33,27.00
2013,09,11,12,34,27.10
2013,09,11,12,35,27.00
2013,09,11,12,36,27.00
2013,09,11,12,37,27.10
2013,09,11,12,38,27.20
2013,09,11,12,39,27.30
2013,09,11,12,40,27.30
2013,09,11,12,41,27.30
2013,09,11,12,42,27.30
2013,09,11,12,43,27.30
2013,09,11,12,44,27.30
2013,09,11,12,45,27.30
2013,09,11,12,46,27.30
2013,09,11,12,47,27.20
2013,09,11,12,48,27.10
2013,09,11,12,49,27.10
2013,09,11,12,50,27.10
2013,09,11,12,51,27.10
2013,09,11,12,52,27.10
2013,09,11,12,53,27.00
2013,09,11,12,54,27.00
2013,09,11,12,55,27.10
2013,09,11,12,56,27.10
2013,09,11,12,57,27.10
2013,09,11,12,58,27.10
2013,09,11,12,59,27.10
2013,09,11,13,00,27.20
2013,09,11,13,01,27.20
2013,09,11,13,02,27.20
2013,09,11,13,03,27.30
2013,09,11,13,04,27.30
2013,09,11,13,05,27.30
2013,09,11,13,06,27.30
2013,09,11,13,07,27.40
2013,09,11,13,08,27.30
2013,09,11,13,09,27.30
2013,09,11,13,10,27.30
2013,09,11,13,11,27.20
2013,09,11,13,12,27.20
2013,09,11,13,13,27.20
2013,09,11,13,14,27.20
2013,09,11,13,15,27.30
2013,09,11,13,16,27.30
2013,09,11,13,17,27.30
2013,09,11,13,18,27.30
2013,09,11,13,19,27.30
2013,09,11,13,20,27.30
2013,09,11,13,21,27.30
2013,09,11,13,22,27.30
2013,09,11,13,23,27.30
2013,09,11,13,24,27.30
2013,09,11,13,25,27.30
2013,09,11,13,26,27.30
2013,09,11,13,27,27.30
2013,09,11,13,28,27.30
2013,09,11,13,29,27.40
2013,09,11,13,30,27.50
2013,09,11,13,31,27.60
2013,09,11,13,32,27.60
2013,09,11,13,33,27.60
2013,09,11,13,34,27.60
2013,09,11,13,35,27.70
2013,09,11,13,36,27.70
2013,09,11,13,37,27.70
2013,09,11,13,38,27.80
2013,09,11,13,39,27.80
2013,09,11,13,40,27.90
2013,09,11,13,41,27.90
2013,09,11,13,42,27.90
2013,09,11,13,43,27.90
2013,09,11,13,44,27.90
2013,09,11,13,45,27.90
2013,09,11,13,46,27.90
2013,09,11,13,47,27.90
2013,09,11,13,48,27.90
2013,09,11,13,49,27.90
2013,09,11,13,50,27.90
2013,09,11,13,51,27.90
2013,09,11,13,52,28.00
2013,09,11,13,53,28.00
2013,09,11,13,54,28.10
2013,09,11,13,55,28.10
2013,09,11,13,56,28.20
2013,09,11,13,57,28.20
2013,09,11,13,58,28.10
2013,09,11,13,59,28.10
2013,09,11,14,00,28.10
2013,09,11,14,01,28.20
2013,09,11,14,02,28.20
2013,09,11,14,03,28.20
2013,09,11,14,04,28.10
2013,09,11,14,05,28.20
2013,09,11,14,06,28.20
2013,09,11,14,07,28.20
2013,09,11,14,08,28.30
2013,09,11,14,09,28.30
2013,09,11,14,10,28.30
2013,09,11,14,11,28.40
2013,09,11,14,12,28.40
2013,09,11,14,13,28.40
2013,09,11,14,14,28.40
2013,09,11,14,15,28.30
2013,09,11,14,16,28.30
2013,09,11,14,17,28.30
2013,09,11,14,18,28.40
2013,09,11,14,19,28.40
2013,09,11,14,20,28.40
2013,09,11,14,21,28.40
2013,09,11,14,22,28.40
2013,09,11,14,23,28.60
2013,09,11,14,24,28.70
2013,09,11,14,25,28.70
2013,09,11,14,26,28.70
2013,09,11,14,27,28.70
2013,09,11,14,28,28.70
2013,09,11,14,29,28.70
2013,09,11,14,30,28.70
2013,09,11,14,31,28.70
2013,09,11,14,32,28.80
2013,09,11,14,33,28.80
2013,09,11,14,34,28.80
2013,09,11,14,35,28.80
2013,09,11,14,36,28.80
2013,09,11,14,37,28.80
2013,09,11,14,38,28.90
2013,09,11,14,39,28.90
2013,09,11,14,40,28.90
2013,09,11,14,41,28.90
2013,09,11,14,42,29.00
2013,09,11,14,43,29.10
2013,09,11,14,44,29.10
2013,09,11,14,45,29.10
2013,09,11,14,46,29.10
2013,09,11,14,47,29.20
2013,09,11,14,48,29.10
2013,09,11,14,49,29.00
2013,09,11,14,50,29.10
2013,09,11,14,51,29.20
2013,09,11,14,52,29.20
2013,09,11,14,53,29.30
2013,09,11,14,54,29.40
2013,09,11,14,55,29.50
2013,09,11,14,56,29.60
2013,09,11,14,57,29.50
2013,09,11,14,58,29.50
2013,09,11,14,59,29.40
2013,09,11,15,00,29.50
2013,09,11,15,01,29.50
2013,09,11,15,02,29.50
2013,09,11,15,03,29.60
2013,09,11,15,04,29.60
2013,09,11,15,05,29.70
2013,09,11,15,06,29.60
2013,09,11,15,07,29.70
2013,09,11,15,08,29.70
2013,09,11,15,09,29.80
2013,09,11,15,10,29.80
2013,09,11,15,11,29.80
2013,09,11,15,12,29.80
2013,09,11,15,13,29.90
2013,09,11,15,14,29.90
2013,09,11,15,15,29.90
2013,09,11,15,16,29.90
2013,09,11,15,17,29.90
2013,09,11,15,18,29.90
2013,09,11,15,19,29.90
2013,09,11,15,20,29.90
2013,09,11,15,21,29.90
2013,09,11,15,22,30.00
2013,09,11,15,23,30.10
2013,09,11,15,24,30.10
2013,09,11,15,25,30.10
2013,09,11,15,26,30.10
2013,09,11,15,27,30.10
2013,09,11,15,28,30.00
2013,09,11,15,29,30.10
2013,09,11,15,30,30.10
2013,09,11,15,31,30.10
2013,09,11,15,32,30.20
2013,09,11,15,33,30.20
2013,09,11,15,34,30.20
2013,09,11,15,35,30.30
2013,09,11,15,36,30.30
2013,09,11,15,37,29.90
2013,09,11,15,38,29.40
2013,09,11,15,39,28.80
2013,09,11,15,40,28.30
2013,09,11,15,41,27.70
2013,09,11,15,42,27.20
2013,09,11,15,43,26.90
2013,09,11,15,44,26.70
2013,09,11,15,45,26.60
2013,09,11,15,46,26.40
2013,09,11,15,47,26.40
2013,09,11,15,48,26.10
2013,09,11,15,49,25.90
2013,09,11,15,50,25.70
2013,09,11,15,51,25.50
2013,09,11,15,52,25.30
2013,09,11,15,53,25.00
2013,09,11,15,54,24.80
2013,09,11,15,55,24.60
2013,09,11,15,56,24.50
2013,09,11,15,57,24.40
2013,09,11,15,58,24.30
2013,09,11,15,59,24.30
2013,09,11,16,00,24.30
2013,09,11,16,01,24.30
2013,09,11,16,02,24.30
2013,09,11,16,03,24.30
2013,09,11,16,04,24.30
2013,09,11,16,05,24.30
2013,09,11,16,06,24.10
2013,09,11,16,07,24.10
2013,09,11,16,08,24.10
2013,09,11,16,09,24.10
2013,09,11,16,10,24.10
2013,09,11,16,11,24.10
2013,09,11,16,12,24.10
2013,09,11,16,13,24.00
2013,09,11,16,14,24.00
2013,09,11,16,15,24.10
2013,09,11,16,16,24.10
2013,09,11,16,17,24.10
2013,09,11,16,18,24.20
2013,09,11,16,19,24.20
2013,09,11,16,20,24.20
2013,09,11,16,21,24.20
2013,09,11,16,22,24.20
2013,09,11,16,23,24.20
2013,09,11,16,24,24.20
2013,09,11,16,25,24.20
2013,09,11,16,26,24.30
2013,09,11,16,27,24.30
2013,09,11,16,28,24.40
2013,09,11,16,29,24.40
2013,09,11,16,30,24.40
2013,09,11,16,31,24.40
2013,09,11,16,32,24.40
2013,09,11,16,33,24.50
2013,09,11,16,34,24.60
2013,09,11,16,35,24.60
2013,09,11,16,36,24.60
2013,09,11,16,37,24.60
2013,09,11,16,38,24.70
2013,09,11,16,39,24.70
2013,09,11,16,40,24.80
2013,09,11,16,41,24.80
2013,09,11,16,42,24.80
2013,09,11,16,43,24.70
2013,09,11,16,44,24.70
2013,09,11,16,45,24.70
2013,09,11,16,46,24.70
2013,09,11,16,47,24.70
2013,09,11,16,48,24.70
2013,09,11,16,49,24.70
2013,09,11,16,50,24.80
2013,09,11,16,51,24.80
2013,09,11,16,52,24.80
2013,09,11,16,53,24.80
2013,09,11,16,54,24.70
2013,09,11,16,55,24.60
2013,09,11,16,56,24.50
2013,09,11,16,57,24.50
2013,09,11,16,58,24.50
2013,09,11,16,59,24.50
2013,09,11,17,00,24.50
2013,09,11,17,01,24.50
2013,09,11,17,02,24.50
2013,09,11,17,03,24.50
2013,09,11,17,04,24.50
2013,09,11,17,05,24.50
2013,09,11,17,06,24.60
2013,09,11,17,07,24.60
2013,09,11,17,08,24.50
2013,09,11,17,09,24.50
2013,09,11,17,10,24.50
2013,09,11,17,11,24.50
2013,09,11,17,12,24.50
2013,09,11,17,13,24.60
2013,09,11,17,14,24.60
2013,09,11,17,15,24.60
2013,09,11,17,16,24.70
2013,09,11,17,17,24.70
2013,09,11,17,18,24.80
2013,09,11,17,19,24.90